This is the latest recevied weather packets stored in our database for station/object LKCS. If no packets are shown the sender has not sent any weather packets the latest 10 day(s).
| Time | Temp. | Humidity | Pressure | Rain* | Wind** | Luminosity | Snow |
|---|---|---|---|---|---|---|---|
| 1788051760 | 13.89° C | 87% | 1017 hPa | - | - | - | - |
| 1788049986 | 13.89° C | 87% | 1017 hPa | - | - | - | - |
| 1788048186 | 13.89° C | 87% | 1017 hPa | - | - | - | - |
| 1788046351 | 13.89° C | 87% | 1017 hPa | - | - | - | - |
| 1788044560 | 13.89° C | 87% | 1017 hPa | - | - | - | - |
| 1788042751 | 15° C | 82% | 1017 hPa | - | - | - | - |
| 1788040958 | 16.11° C | 77% | 1017 hPa | - | - | - | - |
| 1788039185 | 15° C | 82% | 1017 hPa | - | - | - | - |
| 1788037387 | 15° C | 82% | 1017 hPa | - | - | - | - |
| 1788035585 | 16.11° C | 77% | 1017 hPa | - | - | - | - |
| 1788033786 | 16.11° C | 77% | 1017 hPa | - | - | - | - |
| 1788031951 | 17.78° C | 63% | 1017 hPa | - | - | - | - |
| 1788030161 | 17.22° C | 67% | 1017 hPa | - | - | - | - |
| 1788028384 | 17.78° C | 63% | 1016 hPa | - | - | - | - |
| 1788026586 | 18.89° C | 59% | 1016 hPa | - | - | - | - |
| 1788024784 | 21.11° C | 52% | 1016 hPa | - | - | - | - |
| 1788022986 | 22.22° C | 49% | 1016 hPa | - | - | - | - |
| 1788021185 | 23.89° C | 41% | 1016 hPa | - | - | - | - |
| 1788019387 | 23.89° C | 44% | 1016 hPa | - | - | - | - |
| 1788018902 | 25° C | 38% | 1016 hPa | - | - | - | - |
| 1788015787 | 23.89° C | 41% | 1016 hPa | - | - | - | - |
| 1788015184 | 25° C | 38% | 1016 hPa | - | - | - | - |
| 1788013958 | 23.89° C | 44% | 1016 hPa | - | - | - | - |
| 1788012194 | 22.78° C | 49% | 1016 hPa | - | - | - | - |
| 1788010384 | 22.78° C | 46% | 1017 hPa | - | - | - | - |
* Rain since midnight (hover to see other rain measurements)
** Current wind speed in m/s (hover to see current wind gust speed)